Location: Riverton
(43.0250°N, 108.3790°W)
Time: 01:42:31
(UTC-06:00)

JAS-2 - Visible Passes

Search period start: 23 April 2014 00:00
Search period end: 03 May 2014 00:00
Orbit: 799 x 1322 km, 98.5° (Epoch: 22 April)

Date Brightness Start Highest point End Pass type
(mag) Time Alt. Az. Time Alt. Az. Time Alt. Az.
24 Apr 12.0 20:55:26 10° SW 20:58:57 17° W 21:02:21 10° NW visible
26 Apr 11.9 20:50:19 10° SW 20:53:59 18° W 20:57:33 10° NW visible
28 Apr 11.8 20:45:12 10° SW 20:49:01 19° W 20:52:45 10° NW visible
30 Apr 11.8 20:40:06 10° SW 20:44:03 21° W 20:47:56 10° NW visible
